Regional Weather Roundup
Issued by NWS Wakefield, VA

Home | Current Version | Previous Version | Graphics & Text | Print | Product List | Glossary On
Versions: 1 2 3 4 5 6 7 8 9 10 11 12 13 14 15 16 17 18 19 20 21 22 23 24 25 26 27 28 29 30 31 32 33 34 35 36 37 38 39 40 41 42 43 44 45 46 47 48 49 50
000
ASUS41 KAKQ 241215
RWRAKQ

REGIONAL WEATHER ROUNDUP
NATIONAL WEATHER SERVICE WAKEFIELD VA
800 AM EDT TUE MAY 24 2016

Note: "fair" indicates few or no clouds below 12,000 feet with no
significant weather and/or obstructions to visibility. * = Denotes
station may not report precipitation (e.g., rain,snow,etc.),
thunder or fog.

VAZ042-051-052>054-056-241300-
NORTHERN VIRGINIA

CITY           SKY/WX    TMP DP  RH WIND       PRES   REMARKS
WASH NATIONAL  FAIR      65  55  70 NW8       29.99R
DULLES         FAIR      60  55  83 CALM      30.00R
FORT BELVOIR   FAIR      64  56  76 NW6       29.99R
QUANTICO       FAIR      61  57  87 NW7       30.00R
FREDERICKSBRG* FAIR      63  61  94 CALM      30.00R
STAFFORD*      FAIR      61  56  84 CALM      30.05R
WARRENTON      FAIR      60  54  80 CALM      30.01R
CULPEPER*      FAIR      59  58  97 CALM      30.03R
MANASSAS*      SUNNY     57  57 100 SW3       30.01R
LEESBURG*      FAIR      66  55  68 N3        30.02R
WINCHESTER     FAIR      59  55  88 SW3       30.03R
FRONT ROYAL*   FAIR      59  54  82 S8        30.03R
LURAY*         FAIR      59  57  94 CALM      30.06R
$$

VAZ048-049-060>072-079>083-241300-
CENTRAL AND SOUTH CENTRAL VIRGINIA

CITY           SKY/WX    TMP DP  RH WIND       PRES   REMARKS
RICHMOND       PTSUNNY   58  55  90 W7        30.01R
CHESTERFIELD*  FAIR      61  46  59 W5        30.04R
PETERSBURG*    FAIR      59  59  98 SW3       30.05R
HANOVER        FAIR      59  55  87 W5        30.03R
TAPPAHANNOCK*  FAIR      63  58  83 W6        30.01R
QUINTON*       FAIR      56  55  97 W5        30.01R
CHARLOTTSVILLE CLOUDY    63  54  72 CALM      30.03R
GORDONSVILLE*  FAIR      59  58  94 CALM      30.02R
ORANGE*        FAIR      61  59  94 CALM      30.03R
LOUISA*        FAIR      63  59  88 W3        30.01R
BUMPASS*       FAIR      60  57  92 W5        30.02R
FARMVILLE*     FAIR      57  57 100 CALM      30.05R
CREWE*         PTSUNNY   57  57 100 CALM      30.05R
FORT PICKETT*  NOT AVBL
CHASE CITY*    FAIR      56  54  94 W3        30.08R
CLARKSVILLE*   FAIR      59  55  88 W3        30.07R
SOUTH HILL*    FAIR      58  54  86 W3        30.12R
LAWRENCEVILLE* FAIR      57  54  90 W3        30.06R
EMPORIA*       FAIR      57  54  88 SW5       30.07R
$$

VAZ088>098-241300-
SOUTHEAST VIRGINIA

CITY           SKY/WX    TMP DP  RH WIND       PRES   REMARKS
NORFOLK        FAIR      59  55  87 SW10      30.01R
VIRGINIA BEACH FAIR      63  55  75 SW12      30.00S
NORFOLK NAVAL  PTSUNNY   60  55  83 SW8       30.02R
WEST POINT*    FAIR      59  58  97 W3        30.02R
SALUDA*        FAIR      63  58  83 W3        29.99R
NEWPORT NEWS   FAIR      60  56  86 SW9       30.00S
LANGLEY AFB    PTSUNNY   60  58  93 SW12      30.00R
FORT EUSTIS    PTSUNNY   60  56  85 VRB5      29.99R
WILLIAMSBURG*  FAIR      59  59 100 W7        30.02R
HR EXEC AP*      N/A     55  54  94 W6        30.04F
FRANKLIN*      FAIR      58  54  85 SW6       30.04S
US460-WAKEFLD  FAIR      55  53  93 VRB3      30.03R
$$

VAZ020-022-025-037-045-241300-
WEST CENTRAL AND SOUTHWEST VIRGINIA

CITY           SKY/WX    TMP DP  RH WIND       PRES   REMARKS
STAUNTON*      FAIR      60  58  96 S5        30.10R
WAYNESBORO*    CLOUDY    60  53  77 SW6       30.09R
HOT SPRINGS VA FAIR      55  48  76 NW9       30.14R
LYNCHBURG      FAIR      55  54  96 S3        30.09R
DANVILLE       FAIR      58  54  86 W5        30.10R
SOUTH BOSTON*  FAIR      57  55  95 W5        30.09R
MARTINSVILLE   FAIR      50  49  97 CALM      30.13R
ROANOKE        FAIR      59  53  80 N3        30.13R
BLACKSBURG     FAIR      52  51  95 CALM      30.18R
DUBLIN*        FAIR      54  53  99 S6        30.17R
MARION*        FAIR      52  50  92 W5        30.21R
HILLSVILLE*    FAIR      49  47  94 SW5       30.16R
RICHLANDS*     FAIR      53  37  55 CALM      30.19R
WISE*          FAIR      55  46  71 CALM      30.19R
ABINGDON*      FAIR      55  51  86 E5        30.18R
$$

MDZ021>025-VAZ099-100-241300-
SOUTHERN MARYLAND AND THE DELMARVA PENINSULA

CITY           SKY/WX    TMP DP  RH WIND       PRES   REMARKS
PATUXENT RIVER MOSUNNY   63  55  75 W10       29.97R
BAY BRIDGE APT SUNNY     63  55  77 W5        29.95R
LEONARDTOWN    SUNNY     59  55  88 W5        29.99R
DOVER          MOSUNNY   61  61 100 NW6       29.93R
GEORGETOWN     CLOUDY    60  56  86 W7        29.95R
EASTON         PTSUNNY   63  61  94 W6        29.98R
CAMBRIDGE        N/A     59  55  88 W3        29.95R
SALISBURY      MOSUNNY   60  58  92 SW5       29.95R
OCEAN CITY     CLOUDY    60  57  89 W6        29.95R
WALLOPS ISLAND FAIR      62  57  83 W7        29.97R
ACCOMACK*      FAIR      63  57  82 W5        29.98R
$$

NCZ012>017-030>032-241300-
NORTH CENTRAL AND EASTERN NORTH CAROLINA

CITY           SKY/WX    TMP DP  RH WIND       PRES   REMARKS
ROANOKE RAPIDS FAIR      59  54  82 W3        30.06R
RALEIGH        MOSUNNY   58  55  90 W6        30.10R
ELIZABETH CITY SUNNY     61  54  77 SW8       30.05R
AHOSKIE*       SUNNY     56  53  87 CALM      30.07R
EDENTON*       SUNNY    N/A N/A N/A W7        30.07R
CURRITUCK*     SUNNY     60  55  84 SW9       30.04R
KILL DEVIL HLS SUNNY     63  57  80 W7        30.04R
MANTEO         SUNNY     60  56  89 W10       30.06R
CAPE HATTERAS  SUNNY     66  55  67 W10       30.07R
TARBORO*       FAIR      59  54  82 W3        30.09R
GOLDSBORO      SUNNY     58  58  99 SW3       30.08R
WASHINGTON     SUNNY     59  53  80 W5        30.08R
GREENVILLE     SUNNY     59  54  82 W3        30.09R
NEW BERN       SUNNY     60  53  77 W6        30.10R
WILMINGTON     SUNNY     61  55  81 W7        30.11R
$$

VAZ048-241300-
ELSEWHERE

CITY           SKY/WX    TMP DP  RH WIND       PRES   REMARKS
HARRISBURG PA  MOSUNNY   61  52  72 NW13      29.96R
BALTIMORE      PTSUNNY   63  54  72 W10       29.95R
ANNAPOLIS      SUNNY     61  54  77 NW7       29.95R
ANDREWS AFB    FAIR      63  55  74 W15       29.97R
PHILADELPHIA   PTSUNNY   61  54  77 NW5       29.94R
HENDERSON NC   SUNNY     56  51  82 CALM      30.08R
GREENSBORO     MOSUNNY   61  53  75 W6        30.11R
ROCKY MOUNT    SUNNY     60  54  80 SW6       30.08R
$$

VAZ100-241300-
MARINE

STATION/POSITION TIME  TEMP    WIND        PRES    WAVE   SWELL
                       AIR SEA DIR/SP/G            HT/PER HT/PER
                 (UTC) (F)     (DEG/KT/KT) (MB)    (FT/S) (FT/S)
BRANDYWINE LGT   1100   59     260/ 10/ 12 1013.3R
CAPE MAY NJ      1100   60 62  230/  5/  6 1013.0R
LEWES DE         1100   58 58  250/  6/  8 1013.1R
15NM E FENWICK I 1150   57 55              1013.8R   3/ 9
OCEAN-CITY-INLET 1100   58 60  240/  7/  8 1012.8R
WACHAPREAGUE VA  1100   59 63  270/  4/  7 1014.0R
THOMAS POINT MD  1200   62 61  290/ 15/ 16 1015.4R
GOOSES REEF MD   1100   61 60  270/ 10/ 12 1015.0R   1/ 2
COVE POINT MD    1100   60     300/ 11/ 16 1014.4R
SOLOMONS ISLAND  1100   59 62  290/  4/  8   N/A
BISHOPS HEAD MD  1100   61 62  270/ 10/ 10 1014.2R
PINEY POINT MD   1100          310/  7/  8   N/A
POTOMAC MD       1100   60 62  280/ 12/ 14 1013.5R   1/ 3
CAMBRIDGE MD     1100   59 63  250/  5/  8 1013.2R
LEWISETTA VA     1100   59 63  290/  6/  7 1014.2R
RAPPAHANNOCK LGT 1100          260/  9/ 10 1015.4R
STINGRAY PT      1100   61 63  280/ 10/ 12 1015.0R
YORK RVR RNG VA  1100   62     270/ 12/ 13 1014.5R
YORKTOWN VA      1100   60 64  240/  8/ 11 1015.0R
JAMESTOWN VA     1100   56 66  230/  8/ 10   N/A     0
DOMINION TERM VA 1100   59     260/  8/ 10 1015.9R
KIPTOPEKE VA     1100      63  280/  9/ 11   N/A
CHES BAY BRIDGE  1100   60 63  220/ 11/ 13 1015.7R
CAPE HENRY VA    1100   59     220/  6/ 10   N/A
CHESAPEAKE LGHT  1100   61     270/ 11/ 12 1016.4R
WILLOUBY STN VA  1100   60     250/ 10/ 12 1016.5R
CAPE HENRY BUOY  1112      59                N/A     3/ 9
1ST LANDING BUOY 1100   62 63  240/ 10/ 12 1015.7R   2/ 5
CAPE CHARLES BUO 1156      60                N/A     3/10   3/10
OFFSHORE WE BUOY 1151      56                N/A     4/10   3/10
64NM E OF VA BCH 1150   58 56  250/  8/ 10 1016.0R   4/ 9   5/ 9
DUCK PIER NC     1100   60 62  250/  8/ 10 1016.1R
44100 DUCK FRF   1154      58                N/A     4/10   2/11
44056 DUCK FRF   1111      62                N/A     3/ 9   2/11
OREGON INLET NC  1100   60 64  260/  7/ 11 1016.9R
HATTERAS NC      1100   64 67  270/ 14/ 18 1017.2R
DIAMOND SHLS NC  1150   65 67  290/ 14/ 16 1018.3R   5/ 9   3/ C1F1C2F2C3F3C4F4C5F5C6F6C7F7C8M1C9!


USA.gov is the U.S. government's official web portal to all federal, state and local government web resources and services.